This is the latest recevied weather packets stored in our database for station/object KJ6APE. If no packets are shown the sender has not sent any weather packets the latest 10 day(s).
| Time | Temp. | Humidity | Pressure | Rain* | Wind** | Luminosity | Snow |
|---|---|---|---|---|---|---|---|
| 1778177193 | 20° C | 60% | 1019.2 hPa | 0 mm | - | 830 W/m² | - |
| 1778176890 | 20.56° C | 59% | 1019.2 hPa | 0 mm | - | 820 W/m² | - |
| 1778176586 | 20° C | 60% | 1019.2 hPa | 0 mm | - | 806 W/m² | - |
| 1778176283 | 20° C | 61% | 1019.3 hPa | 0 mm | - | 792 W/m² | - |
| 1778175980 | 20° C | 61% | 1019.5 hPa | 0 mm | - | 778 W/m² | - |
| 1778175679 | 20° C | 60% | 1019.2 hPa | 0 mm | - | 764 W/m² | - |
| 1778175375 | 20° C | 63% | 1019.3 hPa | 0 mm | - | 750 W/m² | - |
| 1778175072 | 19.44° C | 62% | 1019.3 hPa | 0 mm | - | 734 W/m² | - |
| 1778174768 | 18.89° C | 63% | 1019.3 hPa | 0 mm | - | 718 W/m² | - |
| 1778174466 | 19.44° C | 64% | 1019.3 hPa | 0 mm | - | 701 W/m² | - |
| 1778174160 | 18.89° C | 64% | 1019.4 hPa | 0 mm | - | 686 W/m² | - |
| 1778173858 | 17.78° C | 67% | 1019.4 hPa | 0 mm | - | 669 W/m² | - |
| 1778173555 | 17.78° C | 68% | 1019.4 hPa | 0 mm | - | 650 W/m² | - |
| 1778173252 | 18.33° C | 67% | 1019.2 hPa | 0 mm | - | 631 W/m² | - |
| 1778172947 | 17.78° C | 68% | 1019.4 hPa | 0 mm | - | 617 W/m² | - |
| 1778172644 | 17.22° C | 69% | 1019.3 hPa | 0 mm | - | 597 W/m² | - |
| 1778172340 | 17.22° C | 69% | 1019.3 hPa | 0 mm | - | 582 W/m² | - |
| 1778172037 | 16.67° C | 72% | 1019.4 hPa | 0 mm | - | 563 W/m² | - |
| 1778171735 | 16.67° C | 70% | 1019.2 hPa | 0 mm | - | 540 W/m² | - |
| 1778171433 | 16.67° C | 71% | 1019.3 hPa | 0 mm | - | 530 W/m² | - |
| 1778171132 | 16.11° C | 74% | 1019.4 hPa | 0 mm | - | 518 W/m² | - |
| 1778170830 | 15.56° C | 75% | 1019.5 hPa | 0 mm | - | 396 W/m² | - |
| 1778170526 | 15.56° C | 75% | 1019.4 hPa | 0 mm | - | 415 W/m² | - |
| 1778170223 | 16.11° C | 74% | 1019.5 hPa | 0 mm | - | 359 W/m² | - |
| 1778169919 | 16.11° C | 75% | 1019.4 hPa | 0 mm | - | 272 W/m² | - |
* Rain latest hour (hover to see other rain measurements)
** Current wind speed in m/s (hover to see current wind gust speed)